When you browse on this site, cookies collect data to enhance your experience and personalize the content and advertising you see.
Visit our Privacy Policy to learn more. By continuing to use the site, you agree to this use of cookies and data.
  • In Hungary
  • List of Countries
  • For 7 days
  • Water Temperature
  • Satellite Maps
  • Weather Map
  • News
  • Weather Widgets
  • user-avatar
    Login

    Hourly Weather Bor

    Today, 16 December, Sunday

    Time Temperature Precipitation Wind Pressure Humidity
    00:00 +8°C° 0.2 mm 4 mps 760 mmHg 90%
    01:00 +7°C° 0.2 mm 4 mps 761 mmHg 90%
    02:00 +7°C° 0.1 mm 4 mps 761 mmHg 89%
    03:00 +7°C° 0.1 mm 4 mps 761 mmHg 88%
    04:00 +6°C° 0.1 mm 4 mps 761 mmHg 87%
    05:00 +6°C° 0 mm 4 mps 761 mmHg 86%
    06:00 +7°C° 0 mm 3 mps 762 mmHg 86%
    07:00 +5°C° 0 mm 3 mps 762 mmHg 85%
    08:00 +7°C° 0 mm 3 mps 763 mmHg 81%
    09:00 +7°C° 0 mm 3 mps 763 mmHg 77%
    10:00 +8°C° 0 mm 3 mps 764 mmHg 73%
    11:00 +8°C° 0 mm 2 mps 764 mmHg 71%
    12:00 +9°C° 0 mm 2 mps 764 mmHg 68%
    13:00 +9°C° 0 mm 2 mps 763 mmHg 66%
    14:00 +9°C° 0 mm 2 mps 764 mmHg 68%
    15:00 +8°C° 0 mm 2 mps 764 mmHg 71%
    16:00 +7°C° 0 mm 2 mps 764 mmHg 74%
    17:00 +7°C° 0 mm 2 mps 765 mmHg 74%
    18:00 +6°C° 0 mm 2 mps 765 mmHg 74%
    19:00 +6°C° 0 mm 2 mps 765 mmHg 75%
    20:00 +6°C° 0 mm 2 mps 765 mmHg 73%
    21:00 +5°C° 0 mm 2 mps 765 mmHg 71%
    22:00 +5°C° 0 mm 2 mps 765 mmHg 69%
    23:00 +5°C° 0 mm 2 mps 765 mmHg 67%

    Tomorrow, 17 December, Monday

    Time Temperature Precipitation Wind Pressure Humidity
    00:00 +5°C° 0 mm 2 mps 765 mmHg 65%
    01:00 +5°C° 0 mm 2 mps 765 mmHg 63%
    02:00 +6°C° 0 mm 2 mps 764 mmHg 63%
    03:00 +6°C° 0 mm 2 mps 764 mmHg 62%
    04:00 +6°C° 0 mm 2 mps 763 mmHg 61%
    05:00 +5°C° 0.1 mm 3 mps 763 mmHg 61%
    06:00 +7°C° 0.1 mm 3 mps 763 mmHg 60%
    07:00 +6°C° 0.1 mm 4 mps 762 mmHg 60%
    08:00 +6°C° 0.8 mm 4 mps 762 mmHg 63%
    09:00 +6°C° 0.8 mm 4 mps 762 mmHg 66%
    10:00 +7°C° 0.8 mm 4 mps 762 mmHg 68%
    11:00 +7°C° 0.4 mm 4 mps 761 mmHg 72%
    12:00 +7°C° 0.4 mm 5 mps 761 mmHg 76%
    13:00 +7°C° 0.4 mm 6 mps 760 mmHg 79%
    14:00 +7°C° 0.8 mm 6 mps 760 mmHg 81%
    15:00 +7°C° 0.8 mm 6 mps 760 mmHg 83%
    16:00 +7°C° 0.8 mm 6 mps 759 mmHg 85%
    17:00 +5°C° 1.8 mm 6 mps 760 mmHg 85%
    18:00 +5°C° 1.8 mm 7 mps 760 mmHg 86%
    19:00 +5°C° 1.8 mm 7 mps 760 mmHg 86%
    20:00 +4°C° 1.3 mm 7 mps 760 mmHg 84%
    21:00 +4°C° 1.3 mm 7 mps 761 mmHg 83%
    22:00 +4°C° 1.3 mm 7 mps 761 mmHg 81%
    23:00 +3°C° 0.7 mm 7 mps 761 mmHg 80%

    Day after tomorrow, 18 December, Tuesday

    Time Temperature Precipitation Wind Pressure Humidity
    00:00 +3°C° 0.7 mm 7 mps 762 mmHg 80%
    01:00 +3°C° 0.7 mm 7 mps 762 mmHg 79%
    02:00 +3°C° 0.1 mm 7 mps 762 mmHg 77%
    03:00 +2°C° 0.1 mm 7 mps 762 mmHg 76%
    04:00 +2°C° 0.1 mm 7 mps 762 mmHg 75%
    05:00 +2°C° 0 mm 6 mps 763 mmHg 74%
    06:00 +2°C° 0 mm 6 mps 764 mmHg 74%
    07:00 +2°C° 0 mm 6 mps 764 mmHg 74%
    08:00 +3°C° 0 mm 6 mps 765 mmHg 74%
    09:00 +4°C° 0 mm 6 mps 765 mmHg 73%
    10:00 +4°C° 0 mm 6 mps 765 mmHg 72%
    11:00 +5°C° 0 mm 6 mps 765 mmHg 73%
    12:00 +7°C° 0 mm 5 mps 765 mmHg 73%
    13:00 +7°C° 0 mm 5 mps 765 mmHg 73%
    14:00 +7°C° 0 mm 5 mps 766 mmHg 74%
    15:00 +6°C° 0 mm 4 mps 766 mmHg 74%
    16:00 +5°C° 0 mm 4 mps 766 mmHg 75%
    17:00 +5°C° 0 mm 4 mps 767 mmHg 76%
    18:00 +4°C° 0 mm 4 mps 767 mmHg 77%
    19:00 +4°C° 0 mm 4 mps 768 mmHg 78%
    20:00 +3°C° 0 mm 4 mps 768 mmHg 78%
    21:00 +3°C° 0 mm 4 mps 768 mmHg 78%
    22:00 +3°C° 0 mm 4 mps 768 mmHg 78%
    23:00 +3°C° 0 mm 4 mps 768 mmHg 78%

    19 December, Wednesday

    Time Temperature Precipitation Wind Pressure Humidity
    00:00 +3°C° 0 mm 4 mps 768 mmHg 79%
    01:00 +3°C° 0 mm 4 mps 768 mmHg 79%
    02:00 +3°C° 0 mm 4 mps 768 mmHg 78%
    03:00 +3°C° 0 mm 3 mps 768 mmHg 78%
    04:00 +3°C° 0 mm 3 mps 768 mmHg 78%
    05:00 +3°C° 0 mm 3 mps 768 mmHg 78%
    06:00 +3°C° 0 mm 3 mps 768 mmHg 77%
    07:00 +3°C° 0 mm 3 mps 769 mmHg 77%
    08:00 +4°C° 0 mm 3 mps 769 mmHg 75%
    09:00 +6°C° 0 mm 2 mps 769 mmHg 74%
    10:00 +8°C° 0 mm 2 mps 769 mmHg 72%
    11:00 +8°C° 0 mm 2 mps 768 mmHg 70%
    12:00 +9°C° 0 mm 2 mps 768 mmHg 68%
    13:00 +11°C° 0 mm 1 mps 768 mmHg 66%
    14:00 +10°C° 0 mm 1 mps 768 mmHg 69%
    15:00 +9°C° 0 mm 1 mps 768 mmHg 71%
    16:00 +8°C° 0 mm 1 mps 768 mmHg 73%
    17:00 +6°C° 0 mm 2 mps 769 mmHg 72%
    18:00 +5°C° 0 mm 2 mps 769 mmHg 71%
    19:00 +3°C° 0 mm 3 mps 769 mmHg 69%
    20:00 +3°C° 0 mm 3 mps 770 mmHg 67%
    21:00 +3°C° 0 mm 3 mps 770 mmHg 64%
    22:00 +3°C° 0 mm 3 mps 770 mmHg 62%
    23:00 +3°C° 0 mm 3 mps 770 mmHg 61%

    20 December, Thursday

    Time Temperature Precipitation Wind Pressure Humidity
    00:00 +3°C° 0 mm 3 mps 770 mmHg 61%
    01:00 +3°C° 0 mm 3 mps 770 mmHg 60%
    02:00 +3°C° 0 mm 3 mps 769 mmHg 59%
    03:00 +3°C° 0 mm 3 mps 769 mmHg 59%
    04:00 +3°C° 0 mm 3 mps 769 mmHg 58%
    05:00 +3°C° 0 mm 3 mps 769 mmHg 57%
    06:00 +3°C° 0 mm 3 mps 769 mmHg 56%
    07:00 +3°C° 0 mm 4 mps 769 mmHg 55%
    08:00 +5°C° 0 mm 3 mps 769 mmHg 56%
    09:00 +7°C° 0 mm 3 mps 769 mmHg 56%
    10:00 +9°C° 0 mm 3 mps 769 mmHg 57%
    11:00 +8°C° 0 mm 4 mps 769 mmHg 57%
    12:00 +10°C° 0 mm 4 mps 768 mmHg 56%
    13:00 +10°C° 0 mm 4 mps 768 mmHg 56%
    14:00 +8°C° 0 mm 4 mps 768 mmHg 57%
    15:00 +8°C° 0 mm 5 mps 768 mmHg 58%
    16:00 +7°C° 0 mm 5 mps 768 mmHg 59%
    17:00 +6°C° 0 mm 5 mps 768 mmHg 61%
    18:00 +6°C° 0 mm 5 mps 768 mmHg 64%
    19:00 +6°C° 0 mm 5 mps 768 mmHg 66%
    20:00 +5°C° 0.5 mm 6 mps 768 mmHg 68%
    21:00 +5°C° 0.5 mm 6 mps 767 mmHg 70%
    22:00 +5°C° 0.5 mm 6 mps 767 mmHg 72%
    23:00 +6°C° 2.1 mm 5 mps 767 mmHg 76%

    21 December, Friday

    Time Temperature Precipitation Wind Pressure Humidity
    00:00 +7°C° 2.1 mm 5 mps 767 mmHg 79%
    01:00 +7°C° 2.1 mm 5 mps 767 mmHg 83%
    02:00 +7°C° 1.8 mm 4 mps 766 mmHg 85%
    03:00 +6°C° 1.8 mm 4 mps 766 mmHg 88%
    04:00 +7°C° 1.8 mm 3 mps 766 mmHg 90%
    05:00 +7°C° 0.3 mm 4 mps 766 mmHg 89%
    06:00 +7°C° 0.3 mm 4 mps 767 mmHg 88%
    07:00 +7°C° 0.3 mm 5 mps 767 mmHg 86%
    08:00 +7°C° 0.4 mm 5 mps 767 mmHg 85%
    09:00 +8°C° 0.4 mm 4 mps 767 mmHg 83%
    10:00 +10°C° 0.4 mm 4 mps 767 mmHg 81%
    11:00 +10°C° 0.4 mm 4 mps 767 mmHg 80%
    12:00 +11°C° 0.4 mm 4 mps 767 mmHg 78%
    13:00 +11°C° 0.4 mm 3 mps 766 mmHg 77%
    14:00 +10°C° 0.2 mm 3 mps 767 mmHg 79%
    15:00 +10°C° 0.2 mm 4 mps 767 mmHg 80%
    16:00 +8°C° 0.2 mm 4 mps 767 mmHg 82%
    17:00 +8°C° 0.1 mm 4 mps 767 mmHg 82%
    18:00 +7°C° 0.1 mm 4 mps 768 mmHg 82%
    19:00 +6°C° 0.1 mm 4 mps 768 mmHg 82%
    20:00 +6°C° 0 mm 4 mps 768 mmHg 81%
    21:00 +6°C° 0 mm 4 mps 769 mmHg 81%
    22:00 +6°C° 0 mm 4 mps 769 mmHg 80%
    23:00 +5°C° 0 mm 4 mps 769 mmHg 80%
    Show more